Grizzly Air Cargo 5383


PAGA
Edward G Pitka Sr. Airport
Galena, Alaska, US
PAFA
Fairbanks International Airport
Fairbanks, Alaska, US

Activity Log

Date Flight Route Aircraft Duration
No Flights Yet

Route Details

Aircraft Information
Primary: Saab 340AF
Backup: Not Available
Route Data
Distance: 234nm
Sched. Duration: 1h 50m
Avg. Duration: 0h 00m (-150m)
Times Flown: 0
Recm'd Route: GAL J122 FAI
Planned Altitude: 25,000ft
Origin Wx: PAGA 160656Z AUTO 09009KT 10SM OVC027 M12/M14 A2953 RMK AO2 SLP002 T11221144 FZRANO
Dest. Wx: PAFA 160653Z 34003KT 10SM BKN070 BKN100 M16/M18 A2962 RMK AO2 SLP043 T11561183
Notes:

Financial History
Total Freight: 0lbs
Average Load: 0lbs/flt
Fuel Used: 0lbs
Avg. Fuel Used: 0lbs/flt
Fuel Expense: $0
Avg. Fuel Expense: $0
Avg. Fuel Cost: $0/lbs
Total Gross Income: $0
Pilot Pay: $0
Total Expenses: $0
Total Revenue: $0
Average Revenue: $0